[[{"header":{"parameterUnit":"m.s-1","parameterCategory":2,"la1":30.2992,"la2":30.254,"lo1":-89.0895,"lo2":-89.0443,"dy":0.0025,"dx":0.0025,"nx":19,"ny":19,"refTime":"2026-04-22T03:00:00:Z","depth":"0","parameterNumber":2,"parameterNumberName":"U-component_of_CURRENTS"},"data":[0,0,0,0.1767,0.1769,0.1893,0.1893,0.2017,0.2018,0,0,0,0,0,0,0,0,0,0,0,0.1712,0.1713,0.1767,0.177,0.1893,0.1894,0.2017,0.2018,0,0,0,0,0,0,0,0,0,0,0,0.1712,0.1713,0.1713,0.177,0.1893,0.1894,0.2017,0.1932,0,0,0,0,0,0,0,0,0,0,0.1816,0.1773,0.1712,0.1713,0.1771,0.1893,0.1894,0.1928,0.1937,0.1952,0,0.1968,0,0.2002,0.2026,0.2026,0,0,0,0.1768,0.1766,0.18,0.1714,0.1772,0.1893,0.1837,0.1933,0.1943,0.1964,0.197,0.1975,0.2004,0.2027,0.2027,0.2196,0.2197,0,0,0.1761,0.1736,0.1793,0.1806,0.18,0.1833,0.1841,0.194,0.1947,0.197,0.1979,0.2006,0.2027,0.2028,0.2195,0.2196,0,0,0,0.1743,0.1731,0.1764,0.18,0.1829,0.1836,0.1845,0.1943,0.1954,0.198,0.2008,0.2028,0.203,0.2194,0.2196,0.2217,0,0,0,0.1738,0.1722,0.176,0.1747,0.1827,0.1894,0.1846,0.1946,0.1959,0.2007,0.2028,0.2031,0.2193,0.2195,0.2214,0.2185,0,0,0,0.1707,0.1719,0.1731,0.1746,0.1802,0.1893,0.191,0.195,0.1976,0.2026,0.2031,0.2192,0.2195,0.2212,0.2182,0.2243,0,0,0,0.168,0.1711,0.173,0.1783,0.1801,0.191,0.191,0.1986,0.2032,0.2029,0.2193,0.2196,0.2211,0.2181,0.2241,0.2168,0.2173,0,0,0.1706,0.1714,0.1748,0.1769,0.1868,0.1893,0.2004,0.2051,0.2075,0.2155,0.2159,0.2215,0.2182,0.2242,0.2304,0.2304,0,0,0,0.175,0.1771,0.1806,0.1868,0.1943,0.2012,0.2075,0.2111,0.2191,0.2114,0.2258,0.2236,0.2273,0.2226,0.2228,0.1953,0.2206,0.2206,0.2206,0.1732,0.1791,0.186,0.194,0.2007,0.2106,0.2162,0.2226,0.2247,0.2294,0.2286,0.2385,0.2338,0.2338,0.2057,0.2345,0.2345,0.2345,0.2346,0.178,0.1823,0.1895,0.1979,0.2054,0.2138,0.225,0.2276,0.2372,0.2359,0.2397,0.2291,0.234,0.204,0.2348,0.2347,0.2347,0.2347,0.2347,0.1766,0.1798,0.1849,0.1966,0.2048,0.2143,0.2229,0.2304,0.2371,0.2407,0.239,0.2388,0.2095,0.2449,0.2449,0.2449,0.2449,0.2449,0.2449,0.1726,0.1787,0.1854,0.1958,0.2017,0.2099,0.2221,0.2283,0.2361,0.2392,0.2392,0.2092,0.2416,0.2378,0.2452,0.2452,0.2451,0.2451,0.2451,0.174,0.1753,0.1859,0.1923,0.2042,0.2066,0.2182,0.2257,0.2347,0.2366,0.2046,0.2405,0.2388,0.2386,0.2349,0.2411,0.2411,0.2411,0.2411,0.1731,0.1751,0.1878,0.1964,0.2035,0.2061,0.2046,0.2065,0.1995,0.1877,0.1874,0.1784,0.1798,0.1741,0.1754,0.1701,0.1598,0.1596,0.1595,0.1761,0.1802,0.1875,0.1953,0.2027,0.2011,0.1899,0.1731,0.1585,0.1534,0.1504,0.1538,0.138,0.1424,0.1316,0.1356,0.1266,0,0]},{"header":{"parameterUnit":"m.s-1","parameterCategory":2,"la1":30.2992,"la2":30.254,"lo1":-89.0895,"lo2":-89.0443,"dy":0.0025,"dx":0.0025,"nx":19,"ny":19,"refTime":"2026-04-22T03:00:00:Z","depth":"0","parameterNumber":3,"parameterNumberName":"V-component_of_CURRENTS"},"data":[0,0,0,0.0145,0.0146,0.016,0.016,0.0178,0.0178,0,0,0,0,0,0,0,0,0,0,0,0.0133,0.0133,0.0145,0.0146,0.016,0.016,0.0178,0.0178,0,0,0,0,0,0,0,0,0,0,0,0.0133,0.0133,0.0134,0.0146,0.016,0.016,0.0178,0.0165,0,0,0,0,0,0,0,0,0,0,0.015,0.0143,0.0133,0.0134,0.0146,0.016,0.016,0.0164,0.0165,0.0175,0,0.018,0,0.0188,0.0181,0.0181,0,0,0,0.0135,0.0141,0.0149,0.0134,0.0146,0.016,0.015,0.0165,0.0166,0.0177,0.0181,0.0181,0.0188,0.0181,0.0181,0.0271,0.0272,0,0,0.0134,0.0132,0.0148,0.015,0.0155,0.015,0.0151,0.0166,0.0168,0.0181,0.0182,0.0189,0.0181,0.0181,0.0271,0.0271,0,0,0,0.0139,0.0131,0.0138,0.0149,0.0156,0.0151,0.0152,0.0167,0.017,0.0182,0.0189,0.0181,0.0182,0.027,0.0271,0.0336,0,0,0,0.0138,0.0135,0.0138,0.0136,0.0156,0.0163,0.0152,0.0169,0.0171,0.0189,0.0181,0.0182,0.0269,0.027,0.0332,0.0357,0,0,0,0.0132,0.0135,0.0138,0.0136,0.0148,0.0162,0.0166,0.0169,0.0176,0.0181,0.0182,0.0268,0.027,0.0329,0.0352,0.0457,0,0,0,0.0126,0.0146,0.0138,0.0163,0.0148,0.0179,0.0166,0.0184,0.0191,0.0181,0.0269,0.0271,0.0328,0.0349,0.0453,0.054,0.0567,0,0,0.0151,0.0149,0.0165,0.0159,0.0196,0.0176,0.0228,0.0228,0.0224,0.026,0.0262,0.0334,0.0352,0.0456,0.0642,0.0666,0,0,0,0.0173,0.0185,0.0194,0.0213,0.0226,0.0258,0.0254,0.0276,0.0321,0.0239,0.0352,0.0361,0.0425,0.0469,0.0489,0.0473,0.0279,0.0279,0.0279,0.0201,0.0212,0.0245,0.0264,0.0285,0.0317,0.0359,0.0392,0.0366,0.0411,0.0428,0.0568,0.0615,0.063,0.0613,0.0445,0.0445,0.0445,0.0446,0.0251,0.0275,0.0289,0.0324,0.0353,0.0393,0.0465,0.0478,0.0579,0.0518,0.0578,0.0551,0.0656,0.0629,0.045,0.0449,0.0449,0.0448,0.0448,0.0277,0.0291,0.0308,0.0358,0.0411,0.0446,0.0564,0.0598,0.0643,0.0701,0.0777,0.0776,0.0744,0.0742,0.0743,0.0744,0.0744,0.0745,0.0745,0.0298,0.0318,0.0353,0.0398,0.0433,0.051,0.0626,0.0719,0.0839,0.0866,0.0867,0.0804,0.0659,0.0637,0.0754,0.0752,0.0751,0.075,0.075,0.034,0.0341,0.0393,0.0428,0.0526,0.0654,0.0747,0.096,0.1048,0.1133,0.106,0.0975,0.0972,0.0956,0.0942,0.1132,0.1132,0.1132,0.1132,0.0362,0.0368,0.0438,0.0504,0.061,0.0726,0.0983,0.1157,0.1246,0.1272,0.1207,0.1139,0.1125,0.1124,0.1104,0.109,0.1313,0.1313,0.1313,0.0394,0.0406,0.046,0.0522,0.0645,0.0832,0.1092,0.1304,0.1374,0.1313,0.1173,0.1165,0.105,0.1028,0.1006,0.098,0.0949,0,0]}],[{"header":{"parameterUnit":"m.s-1","parameterCategory":2,"la1":30.2992,"la2":30.254,"lo1":-89.0895,"lo2":-89.0443,"dy":0.0025,"dx":0.0025,"nx":19,"ny":19,"refTime":"2026-04-22T03:00:00:Z","depth":"2","parameterNumber":2,"parameterNumberName":"U-component_of_CURRENTS"},"data":[0,0,0,0.1645,0.1648,0.1828,0.1829,0.1999,0.2,0,0,0,0,0,0,0,0,0,0,0,0.1582,0.1583,0.1644,0.1648,0.1828,0.1829,0.1998,0.2,0,0,0,0,0,0,0,0,0,0,0,0.1582,0.1583,0.1584,0.1648,0.1827,0.1829,0.1998,0.1884,0,0,0,0,0,0,0,0,0,0,0.1719,0.1691,0.1583,0.1584,0.1649,0.1827,0.1829,0.1879,0.1891,0.1892,0,0.1906,0,0.1944,0.2007,0.2008,0,0,0,0.1674,0.1682,0.1694,0.1584,0.1651,0.1827,0.1754,0.1886,0.1899,0.1907,0.1909,0.1916,0.1947,0.2008,0.2009,0.2205,0.2207,0,0,0.1664,0.1654,0.1685,0.1702,0.1679,0.1748,0.1759,0.1895,0.192,0.191,0.1921,0.195,0.2009,0.201,0.2204,0.2206,0,0,0,0.1618,0.1648,0.166,0.1694,0.1725,0.1752,0.1766,0.1916,0.1909,0.1923,0.1952,0.2009,0.2011,0.2203,0.2205,0.2224,0,0,0,0.1613,0.1618,0.1655,0.1657,0.1722,0.1838,0.1783,0.19,0.1917,0.1951,0.2009,0.2012,0.2201,0.2204,0.222,0.219,0,0,0,0.1577,0.1616,0.1622,0.1655,0.1717,0.1836,0.1842,0.1905,0.1932,0.2008,0.2012,0.22,0.2203,0.2217,0.2187,0.2244,0,0,0,0.1581,0.1612,0.1623,0.1676,0.1715,0.1828,0.1842,0.1949,0.2017,0.201,0.2202,0.2205,0.2216,0.2184,0.2241,0.206,0.2058,0,0,0.1618,0.1618,0.1646,0.1658,0.1746,0.1806,0.1946,0.2032,0.2067,0.2153,0.2159,0.2222,0.2186,0.2243,0.224,0.2232,0,0,0,0.1656,0.1677,0.1707,0.1762,0.1831,0.1932,0.2032,0.2088,0.2204,0.2117,0.228,0.2257,0.2292,0.218,0.2175,0.2219,0.2219,0.2219,0.2218,0.1671,0.1707,0.1775,0.1837,0.1911,0.2043,0.213,0.2232,0.2256,0.2326,0.2318,0.2429,0.2313,0.2307,0.2391,0.2391,0.2391,0.2391,0.2391,0.1712,0.1747,0.1816,0.19,0.1986,0.2104,0.2239,0.2288,0.241,0.2405,0.244,0.226,0.2301,0.2394,0.2393,0.2393,0.2393,0.2392,0.2392,0.169,0.1725,0.1784,0.1911,0.2021,0.2139,0.2242,0.2335,0.2414,0.2452,0.2363,0.2359,0.24,0.2494,0.2494,0.2494,0.2494,0.2494,0.2494,0.1648,0.1715,0.1799,0.1933,0.2004,0.2108,0.2251,0.2318,0.2358,0.2357,0.2356,0.2464,0.2461,0.2409,0.2497,0.2497,0.2496,0.2496,0.2496,0.1643,0.1677,0.1797,0.1876,0.2026,0.206,0.218,0.2217,0.2302,0.228,0.2316,0.232,0.2291,0.2293,0.2239,0.2278,0.2278,0.2278,0.2278,0.1613,0.1653,0.1797,0.1898,0.1988,0.2032,0.1976,0.1857,0.1909,0.1837,0.1856,0.1766,0.1785,0.1724,0.1739,0.1672,0.1564,0.1562,0.1561,0.1609,0.167,0.1755,0.1882,0.1963,0.1965,0.1795,0.1407,0.1279,0.1529,0.1694,0.2238,0.2155,0.2166,0.2111,0.212,0.2029,0,0]},{"header":{"parameterUnit":"m.s-1","parameterCategory":2,"la1":30.2992,"la2":30.254,"lo1":-89.0895,"lo2":-89.0443,"dy":0.0025,"dx":0.0025,"nx":19,"ny":19,"refTime":"2026-04-22T03:00:00:Z","depth":"2","parameterNumber":3,"parameterNumberName":"V-component_of_CURRENTS"},"data":[0,0,0,-0.0018,-0.0019,-0.0019,-0.0019,0.0029,0.003,0,0,0,0,0,0,0,0,0,0,0,-0.0005,-0.0005,-0.0018,-0.0019,-0.0019,-0.0019,0.0029,0.003,0,0,0,0,0,0,0,0,0,0,0,-0.0005,-0.0005,-0.0005,-0.0019,-0.0019,-0.0019,0.0029,0.0019,0,0,0,0,0,0,0,0,0,0,0.0015,0.0016,-0.0005,-0.0005,-0.0019,-0.002,-0.0019,0.0019,0.002,0.0041,0,0.0045,0,0.003,0.0034,0.0034,0,0,0,-0.001,0.0014,0.0012,-0.0005,-0.0019,-0.002,-0.0017,0.0019,0.0021,0.0043,0.0045,0.0046,0.0031,0.0034,0.0034,0.0151,0.0151,0,0,-0.001,-0.0002,0.0011,0.0013,-0.0014,-0.0017,-0.0017,0.002,0.0027,0.0045,0.0047,0.0032,0.0034,0.0035,0.015,0.0151,0,0,0,-0.0016,-0.0002,-0.0006,0.0012,0.0003,-0.0017,-0.0017,0.0025,0.0023,0.0047,0.0032,0.0035,0.0035,0.0149,0.015,0.0207,0,0,0,-0.0015,-0.0007,-0.0006,-0.0001,0.0002,0.0006,-0.0012,0.0021,0.0024,0.0032,0.0035,0.0036,0.0148,0.015,0.0203,0.0229,0,0,0,-0.0006,-0.0006,-0.0005,-0.0001,-0.0007,0.0005,0.0005,0.0021,0.0015,0.0034,0.0036,0.0147,0.0149,0.02,0.0223,0.0339,0,0,0,0.0,0.0008,-0.0004,-0.0005,-0.0007,-0.0015,0.0005,0.0008,0.0022,0.0035,0.0148,0.015,0.0199,0.022,0.0335,0.0397,0.0423,0,0,0.0012,0.001,0.0006,-0.0006,-0.0014,-0.0015,0.0012,0.0042,0.0069,0.0138,0.0141,0.0204,0.0223,0.0338,0.0517,0.0539,0,0,0,0.0009,0.0015,0.0007,-0.0,-0.0015,0.0014,0.0024,0.0075,0.0172,0.0086,0.0231,0.0241,0.0312,0.0341,0.0359,0.016,0.016,0.0159,0.0159,0.0046,0.0027,0.0024,0.0011,0.0013,0.0042,0.0101,0.0182,0.0187,0.0265,0.0307,0.0458,0.0489,0.0503,0.0329,0.0329,0.0329,0.033,0.033,0.0062,0.0059,0.0046,0.0051,0.0069,0.0109,0.0206,0.0258,0.0429,0.0393,0.0461,0.0422,0.0527,0.0335,0.0334,0.0333,0.0333,0.0332,0.0332,0.0083,0.0081,0.0088,0.0097,0.0143,0.0182,0.0319,0.0399,0.0498,0.057,0.0657,0.0656,0.0505,0.0634,0.0635,0.0636,0.0636,0.0637,0.0637,0.011,0.0107,0.0121,0.0146,0.017,0.026,0.0415,0.0536,0.0696,0.0741,0.0743,0.0562,0.0552,0.0525,0.0647,0.0645,0.0644,0.0643,0.0642,0.0129,0.0131,0.0143,0.0162,0.0234,0.0386,0.0508,0.079,0.0905,0.1001,0.0855,0.0847,0.0847,0.0832,0.0812,0.1003,0.1002,0.1003,0.1003,0.0138,0.0137,0.0152,0.0175,0.0275,0.0425,0.0764,0.0952,0.1045,0.1023,0.1021,0.0935,0.0921,0.0919,0.0901,0.088,0.1088,0.1088,0.1087,0.0133,0.0129,0.0147,0.0173,0.028,0.0529,0.0909,0.1059,0.1014,0.1083,0.0959,0.1023,0.0888,0.087,0.0853,0.083,0.0791,0,0]}],[{"header":{"parameterUnit":"m.s-1","parameterCategory":2,"la1":30.2992,"la2":30.254,"lo1":-89.0895,"lo2":-89.0443,"dy":0.0025,"dx":0.0025,"nx":19,"ny":19,"refTime":"2026-04-22T03:00:00:Z","depth":"4","parameterNumber":2,"parameterNumberName":"U-component_of_CURRENTS"},"data":[0,0,0,0.0653,0.0652,0.064,0.064,0.067,0.067,0,0,0,0,0,0,0,0,0,0,0,0.0678,0.0678,0.0653,0.0652,0.064,0.064,0.067,0.067,0,0,0,0,0,0,0,0,0,0,0,0.0678,0.0678,0.0678,0.0652,0.064,0.064,0.067,0.0672,0,0,0,0,0,0,0,0,0,0,0.068,0.0694,0.0678,0.0678,0.0652,0.064,0.064,0.0672,0.0672,0.0683,0,0.0684,0,0.0661,0.0672,0.0672,0,0,0,0.067,0.0694,0.068,0.0678,0.0651,0.064,0.065,0.0672,0.0672,0.0684,0.0684,0.0684,0.0662,0.0672,0.0672,0.0699,0.0699,0,0,0.067,0.0686,0.068,0.068,0.0652,0.065,0.065,0.0671,0.0681,0.0684,0.0684,0.0662,0.0672,0.0672,0.0698,0.0699,0,0,0,0.066,0.0687,0.0672,0.068,0.0665,0.065,0.0649,0.068,0.0672,0.0684,0.0663,0.0672,0.0672,0.0698,0.0698,0.0703,0,0,0,0.0662,0.0679,0.0673,0.0684,0.0664,0.0665,0.0657,0.0672,0.0672,0.0663,0.0672,0.0673,0.0698,0.0698,0.0703,0.0695,0,0,0,0.0678,0.0681,0.0678,0.0684,0.0667,0.0664,0.0659,0.0672,0.0659,0.0672,0.0673,0.0698,0.0698,0.0702,0.0695,0.0741,0,0,0,0.0696,0.0674,0.0679,0.0651,0.0667,0.0622,0.0658,0.0648,0.0657,0.0672,0.0698,0.0698,0.0702,0.0695,0.074,0.0613,0,0,0,0.0668,0.0672,0.0651,0.0654,0.0586,0.0625,0.0597,0.0634,0.0669,0.0697,0.0697,0.0703,0.0695,0.0741,0.0633,0,0,0,0,0.0641,0.0619,0.06,0.0571,0.0554,0.0566,0.0588,0.0624,0.0687,0.0671,0.0708,0.0702,0.0732,0.0655,0.07,0.07,0.07,0.07,0.07,0.0627,0.0597,0.0546,0.0513,0.05,0.0526,0.0558,0.062,0.0653,0.0701,0.0711,0.0751,0.0669,0.072,0.072,0.072,0.072,0.0721,0.0721,0.0543,0.0507,0.0494,0.0436,0.0466,0.047,0.0551,0.061,0.0703,0.0722,0.0752,0.0668,0.0721,0.0721,0.0721,0.0721,0.0721,0.0721,0.0721,0.0519,0.0492,0.047,0.0396,0.0421,0.0466,0.0515,0.0607,0.071,0.074,0.0706,0.0766,0.0763,0.0787,0.0787,0.0787,0.0787,0.0787,0.0787,0.05,0.0462,0.0394,0.0358,0.0353,0.0401,0.0531,0.0587,0.0693,0.0695,0.0767,0.0774,0.0772,0.0768,0.079,0.0789,0.0789,0.0789,0.0789,0.042,0.0412,0.0287,0.0259,0.0244,0.0285,0.0438,0.055,0.0625,0.0644,0.0677,0.0682,0.0675,0.0675,0.0668,0.0661,0.0659,0.0658,0,0.0377,0.0359,0.0188,0.011,0.0098,0.0201,0.0293,0.04,0.0507,0.0487,0.059,0.0621,0.0626,0.061,0.0609,0.0594,0,0,0,0.03,0.0251,0.0135,0.0047,0.0025,0.0153,0.0313,0.0341,0.0504,0.0526,0.0619,0.0629,0.0674,0.0798,0.08,0.0797,0.0791,0,0]},{"header":{"parameterUnit":"m.s-1","parameterCategory":2,"la1":30.2992,"la2":30.254,"lo1":-89.0895,"lo2":-89.0443,"dy":0.0025,"dx":0.0025,"nx":19,"ny":19,"refTime":"2026-04-22T03:00:00:Z","depth":"4","parameterNumber":3,"parameterNumberName":"V-component_of_CURRENTS"},"data":[0,0,0,0.0125,0.0127,0.0208,0.0208,0.03,0.0301,0,0,0,0,0,0,0,0,0,0,0,0.0089,0.009,0.0125,0.0127,0.0208,0.0208,0.03,0.0301,0,0,0,0,0,0,0,0,0,0,0,0.0089,0.0089,0.009,0.0127,0.0208,0.0208,0.03,0.0242,0,0,0,0,0,0,0,0,0,0,0.0165,0.0138,0.0089,0.009,0.0128,0.0207,0.0208,0.0239,0.0246,0.026,0,0.0267,0,0.0289,0.0307,0.0307,0,0,0,0.0129,0.0133,0.0151,0.009,0.0128,0.0207,0.0172,0.0243,0.025,0.0268,0.0268,0.0272,0.029,0.0307,0.0308,0.0395,0.0395,0,0,0.0125,0.0111,0.0146,0.0155,0.0142,0.0169,0.0174,0.0247,0.0254,0.0268,0.0274,0.0292,0.0308,0.0308,0.0394,0.0395,0,0,0,0.011,0.0108,0.0124,0.015,0.0168,0.0171,0.0177,0.0251,0.0255,0.0276,0.0293,0.0308,0.0309,0.0394,0.0394,0.0445,0,0,0,0.0108,0.0099,0.0121,0.0115,0.0166,0.0214,0.0179,0.025,0.0259,0.0292,0.0308,0.031,0.0394,0.0394,0.0443,0.0468,0,0,0,0.0087,0.0098,0.0103,0.0114,0.0149,0.0213,0.0222,0.0252,0.0269,0.0307,0.031,0.0393,0.0394,0.0441,0.0464,0.0483,0,0,0,0.0075,0.0097,0.0103,0.0142,0.0148,0.0229,0.0222,0.028,0.0315,0.0309,0.0394,0.0394,0.0441,0.0462,0.0481,0.0433,0,0,0,0.0098,0.0099,0.0126,0.0134,0.0216,0.0219,0.0305,0.0336,0.0329,0.0368,0.0371,0.0444,0.0464,0.0483,0.0478,0,0,0,0,0.0132,0.0151,0.0177,0.0226,0.0276,0.0332,0.0365,0.0373,0.0404,0.0352,0.0445,0.0456,0.0466,0.0432,0.0398,0.0398,0.0398,0.0398,0.0398,0.0143,0.0183,0.0247,0.0305,0.0356,0.0418,0.045,0.0464,0.0457,0.0467,0.0498,0.0549,0.0516,0.0497,0.0497,0.0498,0.0498,0.0498,0.0498,0.0195,0.0236,0.03,0.0373,0.0433,0.0505,0.055,0.0543,0.0572,0.0546,0.0553,0.049,0.0503,0.0502,0.0501,0.0501,0.05,0.05,0.05,0.0198,0.0228,0.0283,0.0401,0.0498,0.0565,0.064,0.0647,0.0621,0.0634,0.0588,0.0582,0.0576,0.0639,0.0639,0.0639,0.0639,0.0639,0.064,0.0175,0.024,0.0321,0.0436,0.0525,0.0617,0.0696,0.0707,0.0692,0.0643,0.0652,0.0596,0.0591,0.0584,0.0643,0.0642,0.0642,0.0641,0.0641,0.0196,0.0222,0.0345,0.0436,0.0613,0.0672,0.0747,0.0735,0.0735,0.069,0.0638,0.0637,0.0612,0.0607,0.0599,0.0665,0.0664,0.0664,0,0.0199,0.0221,0.0388,0.0527,0.0643,0.071,0.0725,0.0728,0.068,0.0656,0.0715,0.0656,0.0654,0.0626,0.0621,0.0611,0,0,0,0.0235,0.0278,0.0392,0.0525,0.0663,0.0684,0.072,0.07,0.0689,0.0672,0.0654,0.0657,0.0675,0.0652,0.0612,0.0606,0.0591,0,0]}]]